Погода в Завитинске

Россия / Амурская область     50°06′23″N   129°26′21″E
темп.,
°C
ветер,
м/с
пор.,
м/с
влажн.,
%
обл.,
%
осадки,
мм/ч
давл.,
гПа
погр.,
м
8 мая, сб
сб800:00+8всв2478100 0.0 99599
03:00+7всв2583100 0.4 994438
06:00+6всв2679100 0.0 995573
09:00+7всв2377100 0.1 995818
12:00+7всв3468100 0.1 996843
15:00+7в4574100 0.1 996851
18:00+6в5685100 0.1 998744
21:00+5св3691100 0.1 999655
9 мая, вс
вс900:00+5св4694100 0.1 999749
03:00+4св4888100 0.3 999701
06:00+5с4885100 0.1 999669
09:00+8св576398 0.2 1000976
12:00+6всв4683100 0.6 1001907
15:00+6всв4583100 1.1 1003691
18:00+6в2383100 0.1 1004586
21:00+6в1288100 0.1 1006208
10 мая, пн
пн1000:00+6з1189100 0.0 100756
03:00+6зсз1190100 0.0 100838
06:00+6ю1191100 0.1 100960
09:00+6ююз2388100 0.1 1010314
12:00+7юз2277100 0.0 1011787
15:00+11з126299 0.1 10111115
18:00+9зсз2269100 0.1 1012307
21:00+7сз2282100 0.1 101342
11 мая, вт
вт1100:00+6ссв0089100 0.0 101410
03:00+5ю119396 0.0 101415
06:00+5ююз129186 0.0 101594
09:00+10ю226319 0.0 1015912
12:00+14ю334564 0.0 10131821
15:00+12юв5656100 0.1 1013888
18:00+13юв5757100 0.0 10121035
21:00+8юв61280100 0.0 1013620
12 мая, ср
ср1200:00+7юв71482100 0.0 1011734
03:00+7вюв71580100 0.0 1010815
06:00+7вюв81673100 0.0 10081027
09:00+6вюв81687100 4.4 10051211
12:00+7юв71487100 1.9 10041009
15:00+8юв71285100 2.8 10031004
18:00+8в5996100 5.9 1002544
21:00+7в4994100 7.9 1002586